{"data":{"norad_id":69039,"epoch":"2026-05-25T04:51:44.552736Z","epoch_age_seconds":47588,"freshness":"FRESH","line1":"1 69039U 26101Q   26145.20259899 -.00871332  00000+0 -71833-2 0  9998","line2":"2 69039  97.2846 359.9779 0001176  89.2654 270.8744 15.72746926  3029","mean_motion":15.72746926,"eccentricity":0.0001176,"inclination_deg":97.2846,"raan_deg":359.9779,"arg_perigee_deg":89.2654,"mean_anomaly_deg":270.8744,"bstar":-0.0071833,"rev_number":302,"period_min":91.559549485967,"perigee_km":350.25886553893,"apogee_km":351.8415703726,"semimajor_km":6729.1872179558,"source":"CELESTRAK","updated_at":"2026-05-25T13:38:22.082266Z"}}